CW2597 Weather Reports


Display with metric or nautical units.
time (UTC)temp
F
wind
direction
speed
MPH
gust
MPH
rain 1hr
in
rain 24hr
in
rain mn
in
humidity
%
barometer
mb
20260504081704 62 152 0.0 0.0 0.00 0.00 0.00 80 1012.2
20260504081511 62 152 0.0 0.0 0.00 0.00 0.00 80 1011.3
20260504081204 62 65 0.0 0.0 0.00 0.00 0.00 81 1012.2
20260504080704 62 65 0.0 0.0 0.00 0.00 0.00 81 1012.2
20260504080512 62 65 0.0 0.0 0.00 0.00 0.00 81 1011.2
20260504080204 61 65 0.0 0.0 0.00 0.00 0.00 81 1012.1
20260504070204 60 17 0.0 0.0 0.00 0.00 0.00 83 1012.0
20260504060204 60 288 0.0 0.0 0.00 0.00 0.00 86 1011.5
20260504050512 59 248 0.0 0.0 0.00 0.00 0.00 87 1010.2
20260504050206 59 244 0.0 0.0 0.00 0.00 0.00 87 1011.2
20260504045206 59 239 0.0 0.0 0.00 0.00 0.00 87 1011.1
20260504044706 59 243 0.0 0.0 0.00 0.00 0.00 87 1011.1
20260504044206 59 236 0.0 0.0 0.00 0.00 0.00 87 1011.0
20260504042706 59 225 0.0 0.0 0.00 0.00 0.00 87 1010.9
20260504042512 59 231 0.0 0.0 0.00 0.00 0.00 87 1009.9
20260504041705 59 233 0.0 0.0 0.00 0.00 0.00 88 1011.0
20260504041512 59 244 0.0 0.0 0.00 0.00 0.00 88 1010.0
20260504041206 59 225 0.0 0.0 0.00 0.00 0.00 88 1010.9
20260504040706 59 234 0.0 0.0 0.00 0.00 0.00 88 1011.0
20260504040205 59 229 0.0 0.0 0.00 0.00 0.00 88 1010.9
20260504035706 59 257 0.0 0.0 0.00 0.00 0.00 88 1010.9
20260504035511 59 269 0.0 0.0 0.00 0.00 0.00 88 1009.9
20260504035206 59 224 0.0 0.0 0.00 0.00 0.00 88 1010.9
20260504034705 59 235 0.0 0.0 0.00 0.00 0.00 88 1011.0
20260504034511 59 255 0.0 0.0 0.00 0.00 0.00 88 1009.9
20260504033706 59 208 0.0 0.0 0.00 0.00 0.00 88 1010.8
20260504033206 59 269 0.0 0.0 0.00 0.00 0.00 88 1010.8
20260504032705 59 245 0.0 0.0 0.00 0.00 0.00 88 1010.8
20260504032511 58 261 0.0 0.0 0.00 0.00 0.00 88 1009.8
20260504032206 58 224 0.0 0.0 0.00 0.00 0.00 89 1010.7
20260504031511 58 213 0.0 0.0 0.00 0.00 0.00 89 1009.6
20260504031206 58 213 0.0 0.0 0.00 0.00 0.00 89 1010.7
20260504030705 58 211 0.0 0.0 0.00 0.00 0.00 89 1010.7
20260504025706 58 209 0.0 1.0 0.00 0.00 0.00 89 1010.6
20260504025511 58 208 0.0 0.0 0.00 0.00 0.00 89 1009.6
20260504024705 58 211 0.0 0.0 0.00 0.00 0.00 89 1010.7
20260504024511 58 210 0.0 0.0 0.00 0.00 0.00 89 1009.7
20260504024206 58 194 0.0 0.0 0.00 0.00 0.00 89 1010.6
20260504023511 58 217 0.0 0.0 0.00 0.00 0.00 89 1009.5
20260504022706 58 217 0.0 0.0 0.00 0.00 0.00 89 1010.5
20260504022511 58 217 0.0 0.0 0.00 0.00 0.00 90 1009.5
20260504022205 58 217 0.0 0.0 0.00 0.00 0.00 92 1010.5
20260504021706 57 214 0.0 0.0 0.00 0.00 0.00 89 1010.5
20260504021511 57 214 0.0 0.0 0.00 0.00 0.00 89 1009.5
20260504021205 57 265 0.0 0.0 0.00 0.00 0.00 89 1010.5
20260504020705 57 265 0.0 0.0 0.00 0.00 0.00 89 1010.5
20260504020512 57 265 0.0 0.0 0.00 0.00 0.00 89 1009.4
20260504020205 57 265 0.0 0.0 0.00 0.00 0.00 89 1010.4
20260504015706 57 265 0.0 0.0 0.00 0.00 0.00 88 1010.5
20260504015511 57 265 0.0 0.0 0.00 0.00 0.00 88 1009.5
20260504015205 57 265 0.0 0.0 0.00 0.00 0.00 88 1010.5
20260504014705 57 265 0.0 0.0 0.00 0.00 0.00 88 1010.4
20260504014206 57 265 0.0 0.0 0.00 0.00 0.00 88 1010.4
20260504013511 58 265 0.0 0.0 0.00 0.00 0.00 88 1009.4
20260504012705 58 265 0.0 0.0 0.00 0.00 0.00 88 1010.3
20260504012511 58 265 0.0 0.0 0.00 0.00 0.00 88 1009.3
20260504012205 58 265 0.0 0.0 0.00 0.00 0.00 88 1010.3
20260504011705 58 265 0.0 0.0 0.00 0.00 0.00 88 1010.2
20260504011206 58 265 0.0 0.0 0.00 0.00 0.00 88 1010.2
20260504010706 58 227 0.0 0.0 0.00 0.00 0.00 88 1010.2
20260504010511 58 227 0.0 0.0 0.00 0.00 0.00 88 1009.2
20260504010205 58 227 0.0 0.0 0.00 0.00 0.00 87 1010.2
20260504005705 58 250 0.0 0.0 0.00 0.00 0.00 87 1010.1
20260504005511 58 250 0.0 0.0 0.00 0.00 0.00 87 1009.1
20260504005205 58 250 0.0 0.0 0.00 0.00 0.00 87 1010.1
20260504004705 58 250 0.0 0.0 0.00 0.00 0.00 86 1010.1
20260504004206 59 250 0.0 0.0 0.00 0.00 0.00 86 1010.1
20260504003705 59 240 0.0 0.0 0.00 0.00 0.00 86 1010.0
20260504003511 59 208 0.0 0.0 0.00 0.00 0.00 86 1009.0
20260504002705 59 208 0.0 0.0 0.00 0.00 0.00 86 1010.1
20260504002511 59 208 0.0 0.0 0.00 0.00 0.00 86 1009.1
20260504002206 59 208 0.0 0.0 0.00 0.00 0.00 85 1010.1
20260504001705 59 260 0.0 0.0 0.00 0.00 0.00 86 1010.1
20260504001511 60 260 0.0 0.0 0.00 0.00 0.00 86 1009.1
20260504001206 60 260 0.0 0.0 0.00 0.00 0.00 86 1010.2
20260504000705 60 247 0.0 0.0 0.00 0.00 0.00 85 1010.2
20260504000511 60 247 0.0 0.0 0.00 0.00 0.00 85 1009.2
20260504000205 60 212 0.0 0.0 0.00 0.00 0.00 85 1010.2
20260503235705 60 246 0.0 0.0 0.00 0.00 0.00 85 1010.2
20260503235511 60 246 0.0 1.0 0.00 0.00 0.00 85 1009.1
20260503235205 60 246 0.0 1.0 0.00 0.00 0.00 85 1010.2
20260503234705 60 246 0.0 0.0 0.00 0.00 0.00 85 1010.2
20260503234511 60 246 0.0 0.0 0.00 0.00 0.00 85 1009.1
20260503234205 60 241 0.0 0.0 0.00 0.00 0.00 85 1010.2
20260503233511 60 239 0.0 0.0 0.00 0.00 0.00 84 1009.1
20260503233205 60 225 0.0 0.0 0.00 0.00 0.00 84 1010.2
20260503232705 60 188 0.0 3.0 0.00 0.00 0.00 84 1010.2
20260503232511 60 207 0.0 5.0 0.00 0.00 0.00 84 1009.2
20260503232206 60 232 0.0 0.0 0.00 0.00 0.00 84 1010.2
20260503231705 60 241 0.0 0.0 0.00 0.00 0.00 84 1010.1
20260503231511 60 246 0.0 0.0 0.00 0.00 0.00 84 1009.1
20260503231205 60 215 0.0 0.0 0.00 0.00 0.00 84 1010.1
20260503230706 60 247 0.0 0.0 0.00 0.01 0.00 84 1010.1
20260503230512 60 242 0.0 0.0 0.00 0.00 0.00 84 1009.1
20260503230206 60 230 0.0 0.0 0.00 0.01 0.00 84 1010.2
20260503225705 60 234 0.0 0.0 0.00 0.01 0.00 85 1010.2
20260503225511 60 227 0.0 0.0 0.00 0.00 0.00 85 1009.2
20260503225206 60 233 0.0 0.0 0.00 0.01 0.00 85 1010.2
20260503224705 60 206 0.0 0.0 0.00 0.02 0.00 85 1010.1
20260503224511 60 229 0.0 0.0 0.00 0.00 0.00 85 1009.1
20260503224205 59 224 0.0 1.0 0.00 0.02 0.00 85 1010.1
20260503223705 59 209 0.0 0.0 0.00 0.02 0.00 85 1010.0
20260503223205 59 204 0.0 0.0 0.00 0.02 0.00 85 1010.0
20260503222511 59 225 0.0 0.0 0.00 0.00 0.00 84 1009.0
20260503222205 59 199 0.0 0.0 0.00 0.02 0.00 84 1010.0
20260503221706 60 191 0.0 0.0 0.00 0.02 0.00 84 1010.1
20260503221511 60 206 0.0 0.0 0.00 0.00 0.00 84 1009.0
20260503220705 60 191 0.0 0.0 0.00 0.04 0.00 84 1010.1
20260503220205 60 204 0.0 0.0 0.00 0.04 0.00 83 1010.0
20260503215705 60 144 0.0 0.0 0.00 0.04 0.04 83 1010.0
20260503215511 60 198 0.0 0.0 0.00 0.04 0.04 83 1009.1
20260503215205 60 201 0.0 0.0 0.00 0.04 0.04 83 1010.0
20260503214511 60 217 0.0 0.0 0.00 0.04 0.04 83 1009.1
20260503213705 60 185 0.0 0.0 0.00 0.06 0.04 82 1010.2
20260503213511 60 239 0.0 0.0 0.00 0.04 0.04 82 1009.1
20260503213205 61 203 0.0 0.0 0.00 0.06 0.04 82 1010.1
20260503212705 61 192 0.0 0.0 0.00 0.06 0.04 82 1010.1
20260503212511 61 219 0.0 0.0 0.00 0.04 0.04 82 1009.2
20260503212205 61 231 0.0 0.0 0.00 0.06 0.04 82 1010.2
20260503211705 61 171 0.0 0.0 0.00 0.09 0.04 82 1010.1
20260503211511 61 199 0.0 0.0 0.00 0.04 0.04 82 1009.2
20260503211205 61 209 0.0 1.0 0.00 0.10 0.04 81 1010.2
20260503210705 61 222 0.0 0.0 0.00 0.10 0.04 81 1010.1
20260503210511 61 217 0.0 0.0 0.00 0.04 0.04 81 1009.2
20260503205706 61 211 0.0 0.0 0.00 0.10 0.04 81 1010.1
20260503205511 61 195 0.0 2.0 0.00 0.04 0.04 81 1009.1
20260503204705 61 216 0.0 0.0 0.00 0.11 0.04 81 1010.1
20260503204511 61 201 0.0 1.0 0.00 0.04 0.04 81 1009.2
20260503204205 61 236 0.0 1.0 0.00 0.11 0.04 81 1010.1
20260503203705 61 229 1.0 9.0 0.00 0.11 0.04 81 1010.2
20260503203511 61 229 0.0 0.0 0.00 0.04 0.04 81 1009.2
20260503203205 61 203 0.0 0.0 0.00 0.11 0.04 81 1010.2
20260503202705 61 213 0.0 0.0 0.00 0.11 0.04 80 1010.2
20260503202511 61 202 0.0 0.0 0.00 0.04 0.04 80 1009.3
20260503202205 61 209 0.0 0.0 0.00 0.12 0.04 80 1010.2
20260503201705 61 229 0.0 1.0 0.00 0.13 0.04 80 1010.2
20260503201510 61 220 0.0 0.0 0.00 0.04 0.04 80 1009.3
20260503201205 61 180 0.0 0.0 0.00 0.13 0.04 80 1010.2
20260503200511 61 167 0.0 1.0 0.00 0.04 0.04 80 1009.2
20260503200206 61 216 0.0 3.0 0.00 0.13 0.04 80 1010.2
20260503195705 61 196 1.0 6.0 0.00 0.13 0.04 79 1010.2
20260503195205 61 219 0.0 1.0 0.00 0.13 0.04 79 1010.2
20260503194510 62 229 0.0 4.0 0.00 0.04 0.04 79 1009.1
20260503194205 62 203 1.0 3.0 0.00 0.13 0.04 79 1010.1
20260503193705 62 220 0.0 0.0 0.00 0.13 0.04 79 1010.0
20260503193510 62 198 0.0 0.0 0.00 0.04 0.04 78 1008.9
20260503193205 62 215 0.0 0.0 0.00 0.13 0.04 78 1010.1
20260503192705 62 218 0.0 0.0 0.00 0.13 0.04 78 1009.9
20260503192511 62 221 0.0 0.0 0.00 0.04 0.04 78 1008.9
20260503192206 62 180 0.0 0.0 0.00 0.13 0.04 77 1009.9
20260503191510 62 242 0.0 2.0 0.00 0.04 0.04 77 1008.9
20260503191205 62 230 0.0 1.0 0.00 0.13 0.04 77 1009.8
20260503190705 62 211 0.0 2.0 0.00 0.13 0.04 77 1009.7
20260503190510 62 172 0.0 4.0 0.00 0.04 0.04 77 1008.8
20260503185705 62 215 0.0 1.0 0.00 0.13 0.04 76 1009.7
20260503185510 62 198 0.0 3.0 0.00 0.04 0.04 76 1008.7
20260503185205 62 209 0.0 5.0 0.00 0.13 0.04 76 1009.6
20260503184705 62 218 0.0 0.0 0.00 0.13 0.04 76 1009.6
20260503184510 62 208 0.0 0.0 0.00 0.04 0.04 76 1008.7
20260503184205 62 230 0.0 1.0 0.00 0.13 0.04 76 1009.6
20260503183705 62 204 0.0 2.0 0.00 0.13 0.04 76 1009.6
20260503183510 62 227 0.0 2.0 0.00 0.04 0.04 76 1008.6
20260503183205 62 221 0.0 0.0 0.00 0.13 0.04 76 1009.5
20260503182705 62 207 0.0 0.0 0.00 0.13 0.04 76 1009.4
20260503182204 62 217 0.0 0.0 0.00 0.13 0.04 76 1009.2
20260503181205 62 221 0.0 0.0 0.00 0.13 0.04 75 1009.3
20260503180510 62 239 0.0 0.0 0.00 0.04 0.04 75 1008.4
20260503180205 62 226 0.0 0.0 0.00 0.13 0.04 75 1009.3
20260503175510 62 228 0.0 1.0 0.00 0.04 0.04 75 1008.4
20260503174705 62 223 0.0 0.0 0.00 0.13 0.04 75 1009.3
20260503174510 62 234 0.0 3.0 0.00 0.04 0.04 75 1008.4
20260503174205 63 199 0.0 7.0 0.00 0.13 0.04 74 1009.3
20260503173705 63 228 2.0 12.0 0.00 0.13 0.04 73 1009.3
20260503173511 63 250 0.0 11.0 0.00 0.04 0.04 73 1008.4
20260503173205 64 241 0.0 2.0 0.00 0.13 0.04 72 1009.2
20260503172705 64 242 0.0 3.0 0.00 0.13 0.04 71 1009.2
20260503172510 64 253 1.0 12.0 0.00 0.04 0.04 70 1008.4
20260503171705 64 234 3.0 9.0 0.00 0.13 0.04 68 1009.1
20260503171510 64 248 1.0 11.0 0.00 0.04 0.04 68 1008.2
20260503171205 64 208 1.0 10.0 0.00 0.13 0.04 68 1009.0
20260503170705 64 225 2.0 10.0 0.00 0.13 0.04 68 1009.1
20260503170205 64 246 2.0 12.0 0.00 0.13 0.04 67 1009.0
20260503160204 70 225 3.0 13.0 0.00 0.13 0.04 54 1008.5
20260503150705 73 197 1.0 12.0 0.00 0.13 0.04 47 1007.8
20260503150510 73 207 1.0 12.0 0.00 0.04 0.04 47 1006.8
20260503150205 74 218 2.0 9.0 0.00 0.13 0.04 47 1007.8
20260503140205 77 178 2.0 14.0 0.00 0.13 0.04 40 1007.7
20260503131205 77 210 1.0 9.0 0.00 0.13 0.04 41 1008.2
20260503130705 77 201 2.0 10.0 0.00 0.13 0.04 42 1008.2
20260503130510 77 202 1.0 10.0 0.00 0.04 0.04 42 1007.4
20260503130205 77 204 1.0 12.0 0.00 0.13 0.04 41 1008.3
20260503120204 76 183 1.0 5.0 0.00 0.13 0.04 46 1008.7
20260503110704 77 165 0.0 2.0 0.00 0.13 0.04 51 1009.0
20260503110512 77 181 0.0 3.0 0.00 0.04 0.04 51 1008.2
20260503100204 75 71 0.0 0.0 0.00 0.13 0.04 62 1009.5